Year,Month,Day,Hour,Minute,Value (Times are PST for temperature in C)
2018,04,19,00,00,4.30
2018,04,19,00,01,4.30
2018,04,19,00,02,4.30
2018,04,19,00,03,4.20
2018,04,19,00,04,4.20
2018,04,19,00,05,4.20
2018,04,19,00,06,4.20
2018,04,19,00,07,4.20
2018,04,19,00,08,4.20
2018,04,19,00,09,4.20
2018,04,19,00,10,4.30
2018,04,19,00,11,4.30
2018,04,19,00,12,4.30
2018,04,19,00,13,4.40
2018,04,19,00,14,4.40
2018,04,19,00,15,4.40
2018,04,19,00,16,4.40
2018,04,19,00,17,4.40
2018,04,19,00,18,4.40
2018,04,19,00,19,4.40
2018,04,19,00,20,4.50
2018,04,19,00,21,4.50
2018,04,19,00,22,4.50
2018,04,19,00,23,4.50
2018,04,19,00,24,4.50
2018,04,19,00,25,4.50
2018,04,19,00,26,4.40
2018,04,19,00,27,4.40
2018,04,19,00,28,4.40
2018,04,19,00,29,4.40
2018,04,19,00,30,4.30
2018,04,19,00,31,4.30
2018,04,19,00,32,4.20
2018,04,19,00,33,4.20
2018,04,19,00,34,4.20
2018,04,19,00,35,4.10
2018,04,19,00,36,4.10
2018,04,19,00,37,4.10
2018,04,19,00,38,4.00
2018,04,19,00,39,4.00
2018,04,19,00,40,4.00
2018,04,19,00,41,4.00
2018,04,19,00,42,4.00
2018,04,19,00,43,4.00
2018,04,19,00,44,4.00
2018,04,19,00,45,4.10
2018,04,19,00,46,4.10
2018,04,19,00,47,4.10
2018,04,19,00,48,4.10
2018,04,19,00,49,4.10
2018,04,19,00,50,4.10
2018,04,19,00,51,4.10
2018,04,19,00,52,4.10
2018,04,19,00,53,4.10
2018,04,19,00,54,4.10
2018,04,19,00,55,4.00
2018,04,19,00,56,4.00
2018,04,19,00,57,4.00
2018,04,19,00,58,4.00
2018,04,19,00,59,4.00
2018,04,19,01,00,3.90
2018,04,19,01,01,3.90
2018,04,19,01,02,3.90
2018,04,19,01,03,3.90
2018,04,19,01,04,3.90
2018,04,19,01,05,3.90
2018,04,19,01,06,3.80
2018,04,19,01,07,3.80
2018,04,19,01,08,3.80
2018,04,19,01,09,3.80
2018,04,19,01,10,3.80
2018,04,19,01,11,3.80
2018,04,19,01,12,3.80
2018,04,19,01,13,3.80
2018,04,19,01,14,3.80
2018,04,19,01,15,3.80
2018,04,19,01,16,3.70
2018,04,19,01,17,3.70
2018,04,19,01,18,3.70
2018,04,19,01,19,3.70
2018,04,19,01,20,3.70
2018,04,19,01,21,3.70
2018,04,19,01,22,3.70
2018,04,19,01,23,3.70
2018,04,19,01,24,3.70
2018,04,19,01,25,3.70
2018,04,19,01,26,3.60
2018,04,19,01,27,3.60
2018,04,19,01,28,3.60
2018,04,19,01,29,3.60
2018,04,19,01,30,3.50
2018,04,19,01,31,3.50
2018,04,19,01,32,3.50
2018,04,19,01,33,3.40
2018,04,19,01,34,3.40
2018,04,19,01,35,3.40
2018,04,19,01,36,3.30
2018,04,19,01,37,3.30
2018,04,19,01,38,3.30
2018,04,19,01,39,3.30
2018,04,19,01,40,3.30
2018,04,19,01,41,3.30
2018,04,19,01,42,3.30
2018,04,19,01,43,3.30
2018,04,19,01,44,3.20
2018,04,19,01,45,3.20
2018,04,19,01,46,3.20
2018,04,19,01,47,3.20
2018,04,19,01,48,3.20
2018,04,19,01,49,3.10
2018,04,19,01,50,3.10
2018,04,19,01,51,3.10
2018,04,19,01,52,3.10
2018,04,19,01,53,3.10
2018,04,19,01,54,3.00
2018,04,19,01,55,3.00
2018,04,19,01,56,2.90
2018,04,19,01,57,2.90
2018,04,19,01,58,2.90
2018,04,19,01,59,2.90
2018,04,19,02,00,2.90
2018,04,19,02,01,2.90
2018,04,19,02,02,2.90
2018,04,19,02,03,2.90
2018,04,19,02,04,2.90
2018,04,19,02,05,2.90
2018,04,19,02,06,2.90
2018,04,19,02,07,2.90
2018,04,19,02,08,2.90
2018,04,19,02,09,2.90
2018,04,19,02,10,2.90
2018,04,19,02,11,2.90
2018,04,19,02,12,2.90
2018,04,19,02,13,2.80
2018,04,19,02,14,2.80
2018,04,19,02,15,2.80
2018,04,19,02,16,2.80
2018,04,19,02,17,2.80
2018,04,19,02,18,2.80
2018,04,19,02,19,2.80
2018,04,19,02,20,2.80
2018,04,19,02,21,2.80
2018,04,19,02,22,2.90
2018,04,19,02,23,2.90
2018,04,19,02,24,2.90
2018,04,19,02,25,2.90
2018,04,19,02,26,2.90
2018,04,19,02,27,2.90
2018,04,19,02,28,2.90
2018,04,19,02,29,2.90
2018,04,19,02,30,2.90
2018,04,19,02,31,2.90
2018,04,19,02,32,2.90
2018,04,19,02,33,2.90
2018,04,19,02,34,2.80
2018,04,19,02,35,2.80
2018,04,19,02,36,2.80
2018,04,19,02,37,2.80
2018,04,19,02,38,2.70
2018,04,19,02,39,2.70
2018,04,19,02,40,2.70
2018,04,19,02,41,2.70
2018,04,19,02,42,2.60
2018,04,19,02,43,2.60
2018,04,19,02,44,2.60
2018,04,19,02,45,2.60
2018,04,19,02,46,2.60
2018,04,19,02,47,2.60
2018,04,19,02,48,2.60
2018,04,19,02,49,2.60
2018,04,19,02,50,2.50
2018,04,19,02,51,2.50
2018,04,19,02,52,2.50
2018,04,19,02,53,2.50
2018,04,19,02,54,2.50
2018,04,19,02,55,2.60
2018,04,19,02,56,2.60
2018,04,19,02,57,2.60
2018,04,19,02,58,2.60
2018,04,19,02,59,2.60
2018,04,19,03,00,2.60
2018,04,19,03,01,2.60
2018,04,19,03,02,2.60
2018,04,19,03,03,2.60
2018,04,19,03,04,2.60
2018,04,19,03,05,2.60
2018,04,19,03,06,2.60
2018,04,19,03,07,2.60
2018,04,19,03,08,2.60
2018,04,19,03,09,2.60
2018,04,19,03,10,2.60
2018,04,19,03,11,2.70
2018,04,19,03,12,2.70
2018,04,19,03,13,2.70
2018,04,19,03,14,2.70
2018,04,19,03,15,2.70
2018,04,19,03,16,2.70
2018,04,19,03,17,2.70
2018,04,19,03,18,2.70
2018,04,19,03,19,2.70
2018,04,19,03,20,2.70
2018,04,19,03,21,2.70
2018,04,19,03,22,2.70
2018,04,19,03,23,2.60
2018,04,19,03,24,2.60
2018,04,19,03,25,2.60
2018,04,19,03,26,2.60
2018,04,19,03,27,2.50
2018,04,19,03,28,2.50
2018,04,19,03,29,2.40
2018,04,19,03,30,2.40
2018,04,19,03,31,2.40
2018,04,19,03,32,2.40
2018,04,19,03,33,2.30
2018,04,19,03,34,2.30
2018,04,19,03,35,2.30
2018,04,19,03,36,2.30
2018,04,19,03,37,2.30
2018,04,19,03,38,2.30
2018,04,19,03,39,2.30
2018,04,19,03,40,2.30
2018,04,19,03,41,2.30
2018,04,19,03,42,2.30
2018,04,19,03,43,2.30
2018,04,19,03,44,2.30
2018,04,19,03,45,2.20
2018,04,19,03,46,2.20
2018,04,19,03,47,2.20
2018,04,19,03,48,2.20
2018,04,19,03,49,2.20
2018,04,19,03,50,2.20
2018,04,19,03,51,2.20
2018,04,19,03,52,2.20
2018,04,19,03,53,2.20
2018,04,19,03,54,2.20
2018,04,19,03,55,2.20
2018,04,19,03,56,2.20
2018,04,19,03,57,2.20
2018,04,19,03,58,2.20
2018,04,19,03,59,2.30
2018,04,19,04,00,2.30
2018,04,19,04,01,2.30
2018,04,19,04,02,2.40
2018,04,19,04,03,2.40
2018,04,19,04,04,2.40
2018,04,19,04,05,2.40
2018,04,19,04,06,2.40
2018,04,19,04,07,2.40
2018,04,19,04,08,2.40
2018,04,19,04,09,2.40
2018,04,19,04,10,2.40
2018,04,19,04,11,2.40
2018,04,19,04,12,2.40
2018,04,19,04,13,2.30
2018,04,19,04,14,2.30
2018,04,19,04,15,2.30
2018,04,19,04,16,2.30
2018,04,19,04,17,2.30
2018,04,19,04,18,2.30
2018,04,19,04,19,2.30
2018,04,19,04,20,2.30
2018,04,19,04,21,2.20
2018,04,19,04,22,2.20
2018,04,19,04,23,2.20
2018,04,19,04,24,2.20
2018,04,19,04,25,2.20
2018,04,19,04,26,2.20
2018,04,19,04,27,2.20
2018,04,19,04,28,2.20
2018,04,19,04,29,2.20
2018,04,19,04,30,2.20
2018,04,19,04,31,2.20
2018,04,19,04,32,2.20
2018,04,19,04,33,2.20
2018,04,19,04,34,2.20
2018,04,19,04,35,2.20
2018,04,19,04,36,2.20
2018,04,19,04,37,2.20
2018,04,19,04,38,2.20
2018,04,19,04,39,2.20
2018,04,19,04,40,2.30
2018,04,19,04,41,2.30
2018,04,19,04,42,2.30
2018,04,19,04,43,2.30
2018,04,19,04,44,2.30
2018,04,19,04,45,2.30
2018,04,19,04,46,2.30
2018,04,19,04,47,2.30
2018,04,19,04,48,2.30
2018,04,19,04,49,2.30
2018,04,19,04,50,2.30
2018,04,19,04,51,2.40
2018,04,19,04,52,2.40
2018,04,19,04,53,2.40
2018,04,19,04,54,2.40
2018,04,19,04,55,2.50
2018,04,19,04,56,2.50
2018,04,19,04,57,2.50
2018,04,19,04,58,2.50
2018,04,19,04,59,2.40
2018,04,19,05,00,2.40
2018,04,19,05,01,2.40
2018,04,19,05,02,2.40
2018,04,19,05,03,2.40
2018,04,19,05,04,2.40
2018,04,19,05,05,2.30
2018,04,19,05,06,2.30
2018,04,19,05,07,2.30
2018,04,19,05,08,2.30
2018,04,19,05,09,2.30
2018,04,19,05,10,2.30
2018,04,19,05,11,2.30
2018,04,19,05,12,2.30
2018,04,19,05,13,2.30
2018,04,19,05,14,2.30
2018,04,19,05,15,2.30
2018,04,19,05,16,2.30
2018,04,19,05,17,2.40
2018,04,19,05,18,2.40
2018,04,19,05,19,2.40
2018,04,19,05,20,2.40
2018,04,19,05,21,2.30
2018,04,19,05,22,2.30
2018,04,19,05,23,2.30
2018,04,19,05,24,2.30
2018,04,19,05,25,2.30
2018,04,19,05,26,2.30
2018,04,19,05,27,2.30
2018,04,19,05,28,2.30
2018,04,19,05,29,2.30
2018,04,19,05,30,2.20
2018,04,19,05,31,2.20
2018,04,19,05,32,2.20
2018,04,19,05,33,2.20
2018,04,19,05,34,2.20
2018,04,19,05,35,2.20
2018,04,19,05,36,2.10
2018,04,19,05,37,2.10
2018,04,19,05,38,2.10
2018,04,19,05,39,2.10
2018,04,19,05,40,2.10
2018,04,19,05,41,2.00
2018,04,19,05,42,2.00
2018,04,19,05,43,2.00
2018,04,19,05,44,2.00
2018,04,19,05,45,2.00
2018,04,19,05,46,2.00
2018,04,19,05,47,1.90
2018,04,19,05,48,1.90
2018,04,19,05,49,1.90
2018,04,19,05,50,1.90
2018,04,19,05,51,1.90
2018,04,19,05,52,1.90
2018,04,19,05,53,1.90
2018,04,19,05,54,1.80
2018,04,19,05,55,1.80
2018,04,19,05,56,1.80
2018,04,19,05,57,1.80
2018,04,19,05,58,1.80
2018,04,19,05,59,1.90
2018,04,19,06,00,1.80
2018,04,19,06,01,1.80
2018,04,19,06,02,1.80
2018,04,19,06,03,1.80
2018,04,19,06,04,1.80
2018,04,19,06,05,1.80
2018,04,19,06,06,1.80
2018,04,19,06,07,1.80
2018,04,19,06,08,1.80
2018,04,19,06,09,1.80
2018,04,19,06,10,1.90
2018,04,19,06,11,1.90
2018,04,19,06,12,1.90
2018,04,19,06,13,1.90
2018,04,19,06,14,2.00
2018,04,19,06,15,2.00
2018,04,19,06,16,2.10
2018,04,19,06,17,2.10
2018,04,19,06,18,2.10
2018,04,19,06,19,2.10
2018,04,19,06,20,2.10
2018,04,19,06,21,2.10
2018,04,19,06,22,2.10
2018,04,19,06,23,2.10
2018,04,19,06,24,2.10
2018,04,19,06,25,2.10
2018,04,19,06,26,2.10
2018,04,19,06,27,2.10
2018,04,19,06,28,2.10
2018,04,19,06,29,2.10
2018,04,19,06,30,2.10
2018,04,19,06,31,2.10
2018,04,19,06,32,2.10
2018,04,19,06,33,2.10
2018,04,19,06,34,2.10
2018,04,19,06,35,2.10
2018,04,19,06,36,2.10
2018,04,19,06,37,2.10
2018,04,19,06,38,2.10
2018,04,19,06,39,2.10
2018,04,19,06,40,2.10
2018,04,19,06,41,2.10
2018,04,19,06,42,2.10
2018,04,19,06,43,2.10
2018,04,19,06,44,2.10
2018,04,19,06,45,2.10
2018,04,19,06,46,2.10
2018,04,19,06,47,2.10
2018,04,19,06,48,2.10
2018,04,19,06,49,2.20
2018,04,19,06,50,2.20
2018,04,19,06,51,2.20
2018,04,19,06,52,2.20
2018,04,19,06,53,2.20
2018,04,19,06,54,2.20
2018,04,19,06,55,2.20
2018,04,19,06,56,2.20
2018,04,19,06,57,2.30
2018,04,19,06,58,2.20
2018,04,19,06,59,2.30
2018,04,19,07,00,2.30
2018,04,19,07,01,2.30
2018,04,19,07,02,2.30
2018,04,19,07,03,2.30
2018,04,19,07,04,2.30
2018,04,19,07,05,2.30
2018,04,19,07,06,2.40
2018,04,19,07,07,2.40
2018,04,19,07,08,2.40
2018,04,19,07,09,2.50
2018,04,19,07,10,2.50
2018,04,19,07,11,2.60
2018,04,19,07,12,2.60
2018,04,19,07,13,2.60
2018,04,19,07,14,2.70
2018,04,19,07,15,2.70
2018,04,19,07,16,2.70
2018,04,19,07,17,2.70
2018,04,19,07,18,2.70
2018,04,19,07,19,2.80
2018,04,19,07,20,2.80
2018,04,19,07,21,2.80
2018,04,19,07,22,2.80
2018,04,19,07,23,2.90
2018,04,19,07,24,2.90
2018,04,19,07,25,3.00
2018,04,19,07,26,3.00
2018,04,19,07,27,3.10
2018,04,19,07,28,3.10
2018,04,19,07,29,3.10
2018,04,19,07,30,3.10
2018,04,19,07,31,3.20
2018,04,19,07,32,3.20
2018,04,19,07,33,3.20
2018,04,19,07,34,3.20
2018,04,19,07,35,3.30
2018,04,19,07,36,3.30
2018,04,19,07,37,3.40
2018,04,19,07,38,3.50
2018,04,19,07,39,3.60
2018,04,19,07,40,3.60
2018,04,19,07,41,3.60
2018,04,19,07,42,3.70
2018,04,19,07,43,3.70
2018,04,19,07,44,3.70
2018,04,19,07,45,3.70
2018,04,19,07,46,3.70
2018,04,19,07,47,3.70
2018,04,19,07,48,3.70
2018,04,19,07,49,3.70
2018,04,19,07,50,3.80
2018,04,19,07,51,3.80
2018,04,19,07,52,3.80
2018,04,19,07,53,3.80
2018,04,19,07,54,3.80
2018,04,19,07,55,3.90
2018,04,19,07,56,4.00
2018,04,19,07,57,4.10
2018,04,19,07,58,4.10
2018,04,19,07,59,4.20
2018,04,19,08,00,4.30
2018,04,19,08,01,4.40
2018,04,19,08,02,4.50
2018,04,19,08,03,4.60
2018,04,19,08,04,4.80
2018,04,19,08,05,4.80
2018,04,19,08,06,4.90
2018,04,19,08,07,5.00
2018,04,19,08,08,5.00
2018,04,19,08,09,5.10
2018,04,19,08,10,5.10
2018,04,19,08,11,5.20
2018,04,19,08,12,5.20
2018,04,19,08,13,5.20
2018,04,19,08,14,5.30
2018,04,19,08,15,5.30
2018,04,19,08,16,5.40
2018,04,19,08,17,5.50
2018,04,19,08,18,5.60
2018,04,19,08,19,5.60
2018,04,19,08,20,5.70
2018,04,19,08,21,5.80
2018,04,19,08,22,5.90
2018,04,19,08,23,6.10
2018,04,19,08,24,6.20
2018,04,19,08,25,6.40
2018,04,19,08,26,6.50
2018,04,19,08,27,6.60
2018,04,19,08,28,6.70
2018,04,19,08,29,6.80
2018,04,19,08,30,6.90
2018,04,19,08,31,7.00
2018,04,19,08,32,7.10
2018,04,19,08,33,7.10
2018,04,19,08,34,7.20
2018,04,19,08,35,7.30
2018,04,19,08,36,7.30
2018,04,19,08,37,7.40
2018,04,19,08,38,7.50
2018,04,19,08,39,7.60
2018,04,19,08,40,7.60
2018,04,19,08,41,7.70
2018,04,19,08,42,7.80
2018,04,19,08,43,7.80
2018,04,19,08,44,7.90
2018,04,19,08,45,7.90
2018,04,19,08,46,8.00
2018,04,19,08,47,8.00
2018,04,19,08,48,8.10
2018,04,19,08,49,8.10
2018,04,19,08,50,8.10
2018,04,19,08,51,8.20
2018,04,19,08,52,8.20
2018,04,19,08,53,8.30
2018,04,19,08,54,8.40
2018,04,19,08,55,8.50
2018,04,19,08,56,8.60
2018,04,19,08,57,8.70
2018,04,19,08,58,8.80
2018,04,19,08,59,8.90
2018,04,19,09,00,8.90
2018,04,19,09,01,9.00
2018,04,19,09,02,9.00
2018,04,19,09,03,9.10
2018,04,19,09,04,9.10
2018,04,19,09,05,9.20
2018,04,19,09,06,9.30
2018,04,19,09,07,9.30
2018,04,19,09,08,9.40
2018,04,19,09,09,9.40
2018,04,19,09,10,9.50
2018,04,19,09,11,9.60
2018,04,19,09,12,9.60
2018,04,19,09,13,9.70
2018,04,19,09,14,9.70
2018,04,19,09,15,9.80
2018,04,19,09,16,9.80
2018,04,19,09,17,9.90
2018,04,19,09,18,9.90
2018,04,19,09,19,10.00
2018,04,19,09,20,10.10
2018,04,19,09,21,10.10
2018,04,19,09,22,10.10
2018,04,19,09,23,10.20
2018,04,19,09,24,10.20
2018,04,19,09,25,10.30
2018,04,19,09,26,10.40
2018,04,19,09,27,10.40
2018,04,19,09,28,10.50
2018,04,19,09,29,10.50
2018,04,19,09,30,10.50
2018,04,19,09,31,10.60
2018,04,19,09,32,10.60
2018,04,19,09,33,10.70
2018,04,19,09,34,10.80
2018,04,19,09,35,10.80
2018,04,19,09,36,10.80
2018,04,19,09,37,10.80
2018,04,19,09,38,10.80
2018,04,19,09,39,10.80
2018,04,19,09,40,10.70
2018,04,19,09,41,10.70
2018,04,19,09,42,10.70
2018,04,19,09,43,10.80
2018,04,19,09,44,10.80
2018,04,19,09,45,10.90
2018,04,19,09,46,11.00
2018,04,19,09,47,11.00
2018,04,19,09,48,11.10
2018,04,19,09,49,11.20
2018,04,19,09,50,11.20
2018,04,19,09,51,11.10
2018,04,19,09,52,11.10
2018,04,19,09,53,11.10
2018,04,19,09,54,11.10
2018,04,19,09,55,11.00
2018,04,19,09,56,11.00
2018,04,19,09,57,11.10
2018,04,19,09,58,11.20
2018,04,19,09,59,11.30
2018,04,19,10,00,11.30
2018,04,19,10,01,11.40
2018,04,19,10,02,11.40
2018,04,19,10,03,11.50
2018,04,19,10,04,11.60
2018,04,19,10,05,11.80
2018,04,19,10,06,11.90
2018,04,19,10,07,11.90
2018,04,19,10,08,11.80
2018,04,19,10,09,11.80
2018,04,19,10,10,11.70
2018,04,19,10,11,11.70
2018,04,19,10,12,11.70
2018,04,19,10,13,11.70
2018,04,19,10,14,11.70
2018,04,19,10,15,11.80
2018,04,19,10,16,11.80
2018,04,19,10,17,11.60
2018,04,19,10,18,11.50
2018,04,19,10,19,11.30
2018,04,19,10,20,11.20
2018,04,19,10,21,11.20
2018,04,19,10,22,11.30
2018,04,19,10,23,11.30
2018,04,19,10,24,11.40
2018,04,19,10,25,11.40
2018,04,19,10,26,11.40
2018,04,19,10,27,11.40
2018,04,19,10,28,11.50
2018,04,19,10,29,11.50
2018,04,19,10,30,11.60
2018,04,19,10,31,11.70
2018,04,19,10,32,11.80
2018,04,19,10,33,12.00
2018,04,19,10,34,12.10
2018,04,19,10,35,12.20
2018,04,19,10,36,12.10
2018,04,19,10,37,12.10
2018,04,19,10,38,12.00
2018,04,19,10,39,11.90
2018,04,19,10,40,11.80
2018,04,19,10,41,11.80
2018,04,19,10,42,11.80
2018,04,19,10,43,11.90
2018,04,19,10,44,12.00
2018,04,19,10,45,12.00
2018,04,19,10,46,12.10
2018,04,19,10,47,12.10
2018,04,19,10,48,12.10
2018,04,19,10,49,12.00
2018,04,19,10,50,11.90
2018,04,19,10,51,11.80
2018,04,19,10,52,11.80
2018,04,19,10,53,11.80
2018,04,19,10,54,11.80
2018,04,19,10,55,11.90
2018,04,19,10,56,12.00
2018,04,19,10,57,12.10
2018,04,19,10,58,12.10
2018,04,19,10,59,12.10
2018,04,19,11,00,12.20
2018,04,19,11,01,12.20
2018,04,19,11,02,12.20
2018,04,19,11,03,12.10
2018,04,19,11,04,12.10
2018,04,19,11,05,12.20
2018,04,19,11,06,12.10
2018,04,19,11,07,12.10
2018,04,19,11,08,12.10
2018,04,19,11,09,12.10
2018,04,19,11,10,12.20
2018,04,19,11,11,12.20
2018,04,19,11,12,12.20
2018,04,19,11,13,12.10
2018,04,19,11,14,12.10
2018,04,19,11,15,12.20
2018,04,19,11,16,12.20
2018,04,19,11,17,12.20
2018,04,19,11,18,12.20
2018,04,19,11,19,12.20
2018,04,19,11,20,12.30
2018,04,19,11,21,12.40
2018,04,19,11,22,12.30
2018,04,19,11,23,12.20
2018,04,19,11,24,12.30
2018,04,19,11,25,12.40
2018,04,19,11,26,12.60
2018,04,19,11,27,12.70
2018,04,19,11,28,12.70
2018,04,19,11,29,12.70
2018,04,19,11,30,12.70
2018,04,19,11,31,12.60
2018,04,19,11,32,12.60
2018,04,19,11,33,12.60
2018,04,19,11,34,12.50
2018,04,19,11,35,12.40
2018,04,19,11,36,12.40
2018,04,19,11,37,12.40
2018,04,19,11,38,12.40
2018,04,19,11,39,12.40
2018,04,19,11,40,12.30
2018,04,19,11,41,12.20
2018,04,19,11,42,12.20
2018,04,19,11,43,12.20
2018,04,19,11,44,12.20
2018,04,19,11,45,12.20
2018,04,19,11,46,12.10
2018,04,19,11,47,12.00
2018,04,19,11,48,11.80
2018,04,19,11,49,11.80
2018,04,19,11,50,11.80
2018,04,19,11,51,11.90
2018,04,19,11,52,11.80
2018,04,19,11,53,11.80
2018,04,19,11,54,11.80
2018,04,19,11,55,11.80
2018,04,19,11,56,11.80
2018,04,19,11,57,11.80
2018,04,19,11,58,11.70
2018,04,19,11,59,11.60
2018,04,19,12,00,11.60
2018,04,19,12,01,11.60
2018,04,19,12,02,11.80
2018,04,19,12,03,11.80
2018,04,19,12,04,11.80
2018,04,19,12,05,11.80
2018,04,19,12,06,11.90
2018,04,19,12,07,11.90
2018,04,19,12,08,11.90
2018,04,19,12,09,12.00
2018,04,19,12,10,12.10
2018,04,19,12,11,12.10
2018,04,19,12,12,12.10
2018,04,19,12,13,12.10
2018,04,19,12,14,12.10
2018,04,19,12,15,12.10
2018,04,19,12,16,12.10
2018,04,19,12,17,12.10
2018,04,19,12,18,12.10
2018,04,19,12,19,12.00
2018,04,19,12,20,11.90
2018,04,19,12,21,11.90
2018,04,19,12,22,12.00
2018,04,19,12,23,11.90
2018,04,19,12,24,11.90
2018,04,19,12,25,12.00
2018,04,19,12,26,12.00
2018,04,19,12,27,12.10
2018,04,19,12,28,12.20
2018,04,19,12,29,12.30
2018,04,19,12,30,12.30
2018,04,19,12,31,12.30
2018,04,19,12,32,12.40
2018,04,19,12,33,12.30
2018,04,19,12,34,12.20
2018,04,19,12,35,12.20
2018,04,19,12,36,12.20
2018,04,19,12,37,12.20
2018,04,19,12,38,12.30
2018,04,19,12,39,12.30
2018,04,19,12,40,12.30
2018,04,19,12,41,12.30
2018,04,19,12,42,12.20
2018,04,19,12,43,12.10
2018,04,19,12,44,12.10
2018,04,19,12,45,12.20
2018,04,19,12,46,12.30
2018,04,19,12,47,12.10
2018,04,19,12,48,12.00
2018,04,19,12,49,11.90
2018,04,19,12,50,11.80
2018,04,19,12,51,11.70
2018,04,19,12,52,11.80
2018,04,19,12,53,11.80
2018,04,19,12,54,12.00
2018,04,19,12,55,12.10
2018,04,19,12,56,12.10
2018,04,19,12,57,12.00
2018,04,19,12,58,12.10
2018,04,19,12,59,12.10
2018,04,19,13,00,12.20
2018,04,19,13,01,12.30
2018,04,19,13,02,12.40
2018,04,19,13,03,12.40
2018,04,19,13,04,12.40
2018,04,19,13,05,12.40
2018,04,19,13,06,12.50
2018,04,19,13,07,12.60
2018,04,19,13,08,12.70
2018,04,19,13,09,12.80
2018,04,19,13,10,12.80
2018,04,19,13,11,12.80
2018,04,19,13,12,12.60
2018,04,19,13,13,12.60
2018,04,19,13,14,12.50
2018,04,19,13,15,12.50
2018,04,19,13,16,12.60
2018,04,19,13,17,12.60
2018,04,19,13,18,12.70
2018,04,19,13,19,12.80
2018,04,19,13,20,12.80
2018,04,19,13,21,12.90
2018,04,19,13,22,12.90
2018,04,19,13,23,12.80
2018,04,19,13,24,12.60
2018,04,19,13,25,12.40
2018,04,19,13,26,12.40
2018,04,19,13,27,12.50
2018,04,19,13,28,12.60
2018,04,19,13,29,12.80
2018,04,19,13,30,12.80
2018,04,19,13,31,12.80
2018,04,19,13,32,12.80
2018,04,19,13,33,12.80
2018,04,19,13,34,12.80
2018,04,19,13,35,12.80
2018,04,19,13,36,12.70
2018,04,19,13,37,12.60
2018,04,19,13,38,12.50
2018,04,19,13,39,12.50
2018,04,19,13,40,12.60
2018,04,19,13,41,12.50
2018,04,19,13,42,12.40
2018,04,19,13,43,12.50
2018,04,19,13,44,12.60
2018,04,19,13,45,12.60
2018,04,19,13,46,12.70
2018,04,19,13,47,12.80
2018,04,19,13,48,12.90
2018,04,19,13,49,13.00
2018,04,19,13,50,13.00
2018,04,19,13,51,13.20
2018,04,19,13,52,13.20
2018,04,19,13,53,13.10
2018,04,19,13,54,13.00
2018,04,19,13,55,12.90
2018,04,19,13,56,12.90
2018,04,19,13,57,12.90
2018,04,19,13,58,12.90
2018,04,19,13,59,12.90
2018,04,19,14,00,12.90
2018,04,19,14,01,12.80
2018,04,19,14,02,12.80
2018,04,19,14,03,12.70
2018,04,19,14,04,12.80
2018,04,19,14,05,12.80
2018,04,19,14,06,12.90
2018,04,19,14,07,13.00
2018,04,19,14,08,13.00
2018,04,19,14,09,12.90
2018,04,19,14,10,12.90
2018,04,19,14,11,12.90
2018,04,19,14,12,13.00
2018,04,19,14,13,13.00
2018,04,19,14,14,13.00
2018,04,19,14,15,13.10
2018,04,19,14,16,13.20
2018,04,19,14,17,13.30
2018,04,19,14,18,13.40
2018,04,19,14,19,13.50
2018,04,19,14,20,13.60
2018,04,19,14,21,13.70
2018,04,19,14,22,13.70
2018,04,19,14,23,13.80
2018,04,19,14,24,13.80
2018,04,19,14,25,13.90
2018,04,19,14,26,13.80
2018,04,19,14,27,13.70
2018,04,19,14,28,13.70
2018,04,19,14,29,13.80
2018,04,19,14,30,13.80
2018,04,19,14,31,13.80
2018,04,19,14,32,13.80
2018,04,19,14,33,13.80
2018,04,19,14,34,13.70
2018,04,19,14,35,13.70
2018,04,19,14,36,13.60
2018,04,19,14,37,13.60
2018,04,19,14,38,13.50
2018,04,19,14,39,13.40
2018,04,19,14,40,13.40
2018,04,19,14,41,13.40
2018,04,19,14,42,13.50
2018,04,19,14,43,13.70
2018,04,19,14,44,13.90
2018,04,19,14,45,14.10
2018,04,19,14,46,14.20
2018,04,19,14,47,14.20
2018,04,19,14,48,14.10
2018,04,19,14,49,14.00
2018,04,19,14,50,13.90
2018,04,19,14,51,13.90
2018,04,19,14,52,13.70
2018,04,19,14,53,13.60
2018,04,19,14,54,13.50
2018,04,19,14,55,13.50
2018,04,19,14,56,13.50
2018,04,19,14,57,13.60
2018,04,19,14,58,13.70
2018,04,19,14,59,13.70
2018,04,19,15,00,13.80
2018,04,19,15,01,13.90
2018,04,19,15,02,13.90
2018,04,19,15,03,13.90
2018,04,19,15,04,13.90
2018,04,19,15,05,13.90
2018,04,19,15,06,13.80
2018,04,19,15,07,13.80
2018,04,19,15,08,13.70
2018,04,19,15,09,13.70
2018,04,19,15,10,13.70
2018,04,19,15,11,13.70
2018,04,19,15,12,13.70
2018,04,19,15,13,13.70
2018,04,19,15,14,13.70
2018,04,19,15,15,13.70
2018,04,19,15,16,13.90
2018,04,19,15,17,14.10
2018,04,19,15,18,14.20
2018,04,19,15,19,14.40
2018,04,19,15,20,14.40
2018,04,19,15,21,14.40
2018,04,19,15,22,14.30
2018,04,19,15,23,14.10
2018,04,19,15,24,14.00
2018,04,19,15,25,14.00
2018,04,19,15,26,13.80
2018,04,19,15,27,13.70
2018,04,19,15,28,13.50
2018,04,19,15,29,13.40
2018,04,19,15,30,13.30
2018,04,19,15,31,13.30
2018,04,19,15,32,13.40
2018,04,19,15,33,13.60
2018,04,19,15,34,13.70
2018,04,19,15,35,13.90
2018,04,19,15,36,14.10
2018,04,19,15,37,14.20
2018,04,19,15,38,14.20
2018,04,19,15,39,14.20
2018,04,19,15,40,14.10
2018,04,19,15,41,14.00
2018,04,19,15,42,13.90
2018,04,19,15,43,13.90
2018,04,19,15,44,14.20
2018,04,19,15,45,14.40
2018,04,19,15,46,14.70
2018,04,19,15,47,14.90
2018,04,19,15,48,15.00
2018,04,19,15,49,15.20
2018,04,19,15,50,15.20
2018,04,19,15,51,15.20
2018,04,19,15,52,15.20
2018,04,19,15,53,15.20
2018,04,19,15,54,15.10
2018,04,19,15,55,15.00
2018,04,19,15,56,14.80
2018,04,19,15,57,14.70
2018,04,19,15,58,14.60
2018,04,19,15,59,14.50
2018,04,19,16,00,14.40
2018,04,19,16,01,14.30
2018,04,19,16,02,14.30
2018,04,19,16,03,14.30
2018,04,19,16,04,14.20
2018,04,19,16,05,14.00
2018,04,19,16,06,13.90
2018,04,19,16,07,13.80
2018,04,19,16,08,13.90
2018,04,19,16,09,13.90
2018,04,19,16,10,13.90
2018,04,19,16,11,13.90
2018,04,19,16,12,13.80
2018,04,19,16,13,13.60
2018,04,19,16,14,13.50
2018,04,19,16,15,13.40
2018,04,19,16,16,13.50
2018,04,19,16,17,13.50
2018,04,19,16,18,13.60
2018,04,19,16,19,13.70
2018,04,19,16,20,13.80
2018,04,19,16,21,13.90
2018,04,19,16,22,14.00
2018,04,19,16,23,14.20
2018,04,19,16,24,14.50
2018,04,19,16,25,14.80
2018,04,19,16,26,15.10
2018,04,19,16,27,15.20
2018,04,19,16,28,15.30
2018,04,19,16,29,15.40
2018,04,19,16,30,15.50
2018,04,19,16,31,15.70
2018,04,19,16,32,15.80
2018,04,19,16,33,15.90
2018,04,19,16,34,15.90
2018,04,19,16,35,16.00
2018,04,19,16,36,16.10
2018,04,19,16,37,16.30
2018,04,19,16,38,16.40
2018,04,19,16,39,16.40
2018,04,19,16,40,16.40
2018,04,19,16,41,16.40
2018,04,19,16,42,16.50
2018,04,19,16,43,16.50
2018,04,19,16,44,16.50
2018,04,19,16,45,16.40
2018,04,19,16,46,16.30
2018,04,19,16,47,16.30
2018,04,19,16,48,16.30
2018,04,19,16,49,16.20
2018,04,19,16,50,16.20
2018,04,19,16,51,16.20
2018,04,19,16,52,16.20
2018,04,19,16,53,16.20
2018,04,19,16,54,16.30
2018,04,19,16,55,16.30
2018,04,19,16,56,16.40
2018,04,19,16,57,16.40
2018,04,19,16,58,16.50
2018,04,19,16,59,16.50
2018,04,19,17,00,16.50
2018,04,19,17,01,16.30
2018,04,19,17,02,16.20
2018,04,19,17,03,16.20
2018,04,19,17,04,16.20
2018,04,19,17,05,16.20
2018,04,19,17,06,16.20
2018,04,19,17,07,16.20
2018,04,19,17,08,16.30
2018,04,19,17,09,16.20
2018,04,19,17,10,16.20
2018,04,19,17,11,16.10
2018,04,19,17,12,16.00
2018,04,19,17,13,15.90
2018,04,19,17,14,15.90
2018,04,19,17,15,15.90
2018,04,19,17,16,16.00
2018,04,19,17,17,16.10
2018,04,19,17,18,16.10
2018,04,19,17,19,16.10
2018,04,19,17,20,16.00
2018,04,19,17,21,15.90
2018,04,19,17,22,15.90
2018,04,19,17,23,15.80
2018,04,19,17,24,15.80
2018,04,19,17,25,15.70
2018,04,19,17,26,15.60
2018,04,19,17,27,15.70
2018,04,19,17,28,15.70
2018,04,19,17,29,15.60
2018,04,19,17,30,15.60
2018,04,19,17,31,15.60
2018,04,19,17,32,15.50
2018,04,19,17,33,15.50
2018,04,19,17,34,15.40
2018,04,19,17,35,15.40
2018,04,19,17,36,15.50
2018,04,19,17,37,15.60
2018,04,19,17,38,15.60
2018,04,19,17,39,15.70
2018,04,19,17,40,15.70
2018,04,19,17,41,15.90
2018,04,19,17,42,15.90
2018,04,19,17,43,15.90